Year,Month,Day,Hour,Minute,Value (Times are PST for windgust in km/hr)
2019,04,05,00,00,12.90
2019,04,05,00,01,11.30
2019,04,05,00,02,9.60
2019,04,05,00,03,9.60
2019,04,05,00,04,11.30
2019,04,05,00,05,9.60
2019,04,05,00,06,11.30
2019,04,05,00,07,11.30
2019,04,05,00,08,11.30
2019,04,05,00,09,11.30
2019,04,05,00,10,9.60
2019,04,05,00,11,11.30
2019,04,05,00,12,12.90
2019,04,05,00,13,11.30
2019,04,05,00,14,12.90
2019,04,05,00,15,12.90
2019,04,05,00,16,12.90
2019,04,05,00,17,12.90
2019,04,05,00,18,12.90
2019,04,05,00,19,12.90
2019,04,05,00,20,11.30
2019,04,05,00,21,11.30
2019,04,05,00,22,11.30
2019,04,05,00,23,12.90
2019,04,05,00,24,12.90
2019,04,05,00,25,11.30
2019,04,05,00,26,12.90
2019,04,05,00,27,12.90
2019,04,05,00,28,11.30
2019,04,05,00,29,12.90
2019,04,05,00,30,12.90
2019,04,05,00,31,11.30
2019,04,05,00,32,11.30
2019,04,05,00,33,12.90
2019,04,05,00,34,14.50
2019,04,05,00,35,12.90
2019,04,05,00,36,12.90
2019,04,05,00,37,12.90
2019,04,05,00,38,12.90
2019,04,05,00,39,14.50
2019,04,05,00,40,12.90
2019,04,05,00,41,16.10
2019,04,05,00,42,14.50
2019,04,05,00,43,14.50
2019,04,05,00,44,14.50
2019,04,05,00,45,14.50
2019,04,05,00,46,16.10
2019,04,05,00,47,14.50
2019,04,05,00,48,16.10
2019,04,05,00,49,16.10
2019,04,05,00,50,16.10
2019,04,05,00,51,22.50
2019,04,05,00,52,20.90
2019,04,05,00,53,20.90
2019,04,05,00,54,20.90
2019,04,05,00,55,22.50
2019,04,05,00,56,20.90
2019,04,05,00,57,22.50
2019,04,05,00,58,22.50
2019,04,05,00,59,20.90
2019,04,05,01,00,20.90
2019,04,05,01,01,20.90
2019,04,05,01,02,20.90
2019,04,05,01,03,22.50
2019,04,05,01,04,22.50
2019,04,05,01,05,17.70
2019,04,05,01,06,20.90
2019,04,05,01,07,20.90
2019,04,05,01,08,22.50
2019,04,05,01,09,16.10
2019,04,05,01,10,22.50
2019,04,05,01,11,22.50
2019,04,05,01,12,20.90
2019,04,05,01,13,22.50
2019,04,05,01,14,25.70
2019,04,05,01,15,25.70
2019,04,05,01,16,27.40
2019,04,05,01,17,27.40
2019,04,05,01,18,27.40
2019,04,05,01,19,24.20
2019,04,05,01,20,22.50
2019,04,05,01,21,30.60
2019,04,05,01,22,37.00
2019,04,05,01,23,37.00
2019,04,05,01,24,37.00
2019,04,05,01,25,37.00
2019,04,05,01,26,37.00
2019,04,05,01,27,37.00
2019,04,05,01,28,37.00
2019,04,05,01,29,35.40
2019,04,05,01,30,33.80
2019,04,05,01,31,32.20
2019,04,05,01,32,35.40
2019,04,05,01,33,32.20
2019,04,05,01,34,30.60
2019,04,05,01,35,32.20
2019,04,05,01,36,29.00
2019,04,05,01,37,30.60
2019,04,05,01,38,27.40
2019,04,05,01,39,27.40
2019,04,05,01,40,27.40
2019,04,05,01,41,27.40
2019,04,05,01,42,25.70
2019,04,05,01,43,27.40
2019,04,05,01,44,27.40
2019,04,05,01,45,25.70
2019,04,05,01,46,24.20
2019,04,05,01,47,22.50
2019,04,05,01,48,24.20
2019,04,05,01,49,22.50
2019,04,05,01,50,20.90
2019,04,05,01,51,20.90
2019,04,05,01,52,22.50
2019,04,05,01,53,24.20
2019,04,05,01,54,24.20
2019,04,05,01,55,25.70
2019,04,05,01,56,25.70
2019,04,05,01,57,27.40
2019,04,05,01,58,27.40
2019,04,05,01,59,25.70
2019,04,05,02,00,25.70
2019,04,05,02,01,25.70
2019,04,05,02,02,25.70
2019,04,05,02,03,24.20
2019,04,05,02,04,20.90
2019,04,05,02,05,22.50
2019,04,05,02,06,24.20
2019,04,05,02,07,24.20
2019,04,05,02,08,24.20
2019,04,05,02,09,22.50
2019,04,05,02,10,22.50
2019,04,05,02,11,22.50
2019,04,05,02,12,20.90
2019,04,05,02,13,19.30
2019,04,05,02,14,19.30
2019,04,05,02,15,19.30
2019,04,05,02,16,16.10
2019,04,05,02,17,17.70
2019,04,05,02,18,16.10
2019,04,05,02,19,16.10
2019,04,05,02,20,16.10
2019,04,05,02,21,16.10
2019,04,05,02,22,17.70
2019,04,05,02,23,17.70
2019,04,05,02,24,17.70
2019,04,05,02,25,17.70
2019,04,05,02,26,17.70
2019,04,05,02,27,17.70
2019,04,05,02,28,16.10
2019,04,05,02,29,17.70
2019,04,05,02,30,17.70
2019,04,05,02,31,20.90
2019,04,05,02,32,22.50
2019,04,05,02,33,24.20
2019,04,05,02,34,22.50
2019,04,05,02,35,22.50
2019,04,05,02,36,22.50
2019,04,05,02,37,24.20
2019,04,05,02,38,25.70
2019,04,05,02,39,24.20
2019,04,05,02,40,24.20
2019,04,05,02,41,25.70
2019,04,05,02,42,24.20
2019,04,05,02,43,24.20
2019,04,05,02,44,24.20
2019,04,05,02,45,22.50
2019,04,05,02,46,22.50
2019,04,05,02,47,22.50
2019,04,05,02,48,22.50
2019,04,05,02,49,22.50
2019,04,05,02,50,22.50
2019,04,05,02,51,22.50
2019,04,05,02,52,20.90
2019,04,05,02,53,20.90
2019,04,05,02,54,22.50
2019,04,05,02,55,24.20
2019,04,05,02,56,24.20
2019,04,05,02,57,24.20
2019,04,05,02,58,29.00
2019,04,05,02,59,27.40
2019,04,05,03,00,25.70
2019,04,05,03,01,27.40
2019,04,05,03,02,29.00
2019,04,05,03,03,33.80
2019,04,05,03,04,33.80
2019,04,05,03,05,33.80
2019,04,05,03,06,30.60
2019,04,05,03,07,29.00
2019,04,05,03,08,32.20
2019,04,05,03,09,33.80
2019,04,05,03,10,37.00
2019,04,05,03,11,37.00
2019,04,05,03,12,38.60
2019,04,05,03,13,38.60
2019,04,05,03,14,41.80
2019,04,05,03,15,41.80
2019,04,05,03,16,43.50
2019,04,05,03,17,41.80
2019,04,05,03,18,43.50
2019,04,05,03,19,40.20
2019,04,05,03,20,40.20
2019,04,05,03,21,38.60
2019,04,05,03,22,37.00
2019,04,05,03,23,37.00
2019,04,05,03,24,37.00
2019,04,05,03,25,33.80
2019,04,05,03,26,33.80
2019,04,05,03,27,30.60
2019,04,05,03,28,33.80
2019,04,05,03,29,30.60
2019,04,05,03,30,29.00
2019,04,05,03,31,29.00
2019,04,05,03,32,29.00
2019,04,05,03,33,27.40
2019,04,05,03,34,27.40
2019,04,05,03,35,25.70
2019,04,05,03,36,25.70
2019,04,05,03,37,22.50
2019,04,05,03,38,24.20
2019,04,05,03,39,24.20
2019,04,05,03,40,24.20
2019,04,05,03,41,25.70
2019,04,05,03,42,25.70
2019,04,05,03,43,25.70
2019,04,05,03,44,24.20
2019,04,05,03,45,24.20
2019,04,05,03,46,24.20
2019,04,05,03,47,22.50
2019,04,05,03,48,25.70
2019,04,05,03,49,25.70
2019,04,05,03,50,25.70
2019,04,05,03,51,25.70
2019,04,05,03,52,25.70
2019,04,05,03,53,27.40
2019,04,05,03,54,27.40
2019,04,05,03,55,27.40
2019,04,05,03,56,27.40
2019,04,05,03,57,29.00
2019,04,05,03,58,30.60
2019,04,05,03,59,32.20
2019,04,05,04,00,32.20
2019,04,05,04,01,33.80
2019,04,05,04,02,33.80
2019,04,05,04,03,35.40
2019,04,05,04,04,38.60
2019,04,05,04,05,38.60
2019,04,05,04,06,37.00
2019,04,05,04,07,33.80
2019,04,05,04,08,30.60
2019,04,05,04,09,29.00
2019,04,05,04,10,29.00
2019,04,05,04,11,30.60
2019,04,05,04,12,29.00
2019,04,05,04,13,27.40
2019,04,05,04,14,27.40
2019,04,05,04,15,25.70
2019,04,05,04,16,25.70
2019,04,05,04,17,27.40
2019,04,05,04,18,29.00
2019,04,05,04,19,27.40
2019,04,05,04,20,24.20
2019,04,05,04,21,24.20
2019,04,05,04,22,24.20
2019,04,05,04,23,24.20
2019,04,05,04,24,24.20
2019,04,05,04,25,19.30
2019,04,05,04,26,20.90
2019,04,05,04,27,22.50
2019,04,05,04,28,20.90
2019,04,05,04,29,22.50
2019,04,05,04,30,20.90
2019,04,05,04,31,17.70
2019,04,05,04,32,17.70
2019,04,05,04,33,17.70
2019,04,05,04,34,17.70
2019,04,05,04,35,22.50
2019,04,05,04,36,20.90
2019,04,05,04,37,22.50
2019,04,05,04,38,24.20
2019,04,05,04,39,27.40
2019,04,05,04,40,27.40
2019,04,05,04,41,25.70
2019,04,05,04,42,25.70
2019,04,05,04,43,27.40
2019,04,05,04,44,33.80
2019,04,05,04,45,32.20
2019,04,05,04,46,35.40
2019,04,05,04,47,35.40
2019,04,05,04,48,37.00
2019,04,05,04,49,37.00
2019,04,05,04,50,37.00
2019,04,05,04,51,40.20
2019,04,05,04,52,38.60
2019,04,05,04,53,45.10
2019,04,05,04,54,43.50
2019,04,05,04,55,41.80
2019,04,05,04,56,40.20
2019,04,05,04,57,43.50
2019,04,05,04,58,38.60
2019,04,05,04,59,38.60
2019,04,05,05,00,38.60
2019,04,05,05,01,38.60
2019,04,05,05,02,35.40
2019,04,05,05,03,37.00
2019,04,05,05,04,37.00
2019,04,05,05,05,35.40
2019,04,05,05,06,35.40
2019,04,05,05,07,35.40
2019,04,05,05,08,37.00
2019,04,05,05,09,37.00
2019,04,05,05,10,37.00
2019,04,05,05,11,35.40
2019,04,05,05,12,33.80
2019,04,05,05,13,35.40
2019,04,05,05,14,33.80
2019,04,05,05,15,35.40
2019,04,05,05,16,33.80
2019,04,05,05,17,33.80
2019,04,05,05,18,33.80
2019,04,05,05,19,32.20
2019,04,05,05,20,29.00
2019,04,05,05,21,27.40
2019,04,05,05,22,29.00
2019,04,05,05,23,27.40
2019,04,05,05,24,29.00
2019,04,05,05,25,30.60
2019,04,05,05,26,29.00
2019,04,05,05,27,29.00
2019,04,05,05,28,27.40
2019,04,05,05,29,25.70
2019,04,05,05,30,25.70
2019,04,05,05,31,27.40
2019,04,05,05,32,25.70
2019,04,05,05,33,27.40
2019,04,05,05,34,27.40
2019,04,05,05,35,25.70
2019,04,05,05,36,25.70
2019,04,05,05,37,25.70
2019,04,05,05,38,24.20
2019,04,05,05,39,25.70
2019,04,05,05,40,25.70
2019,04,05,05,41,25.70
2019,04,05,05,42,24.20
2019,04,05,05,43,22.50
2019,04,05,05,44,22.50
2019,04,05,05,45,22.50
2019,04,05,05,46,22.50
2019,04,05,05,47,22.50
2019,04,05,05,48,20.90
2019,04,05,05,49,19.30
2019,04,05,05,50,17.70
2019,04,05,05,51,17.70
2019,04,05,05,52,16.10
2019,04,05,05,53,16.10
2019,04,05,05,54,14.50
2019,04,05,05,55,11.30
2019,04,05,05,56,9.60
2019,04,05,05,57,12.90
2019,04,05,05,58,12.90
2019,04,05,05,59,12.90
2019,04,05,06,00,12.90
2019,04,05,06,01,11.30
2019,04,05,06,02,12.90
2019,04,05,06,03,12.90
2019,04,05,06,04,12.90
2019,04,05,06,05,12.90
2019,04,05,06,06,12.90
2019,04,05,06,07,14.50
2019,04,05,06,08,12.90
2019,04,05,06,09,14.50
2019,04,05,06,10,14.50
2019,04,05,06,11,16.10
2019,04,05,06,12,16.10
2019,04,05,06,13,17.70
2019,04,05,06,14,16.10
2019,04,05,06,15,16.10
2019,04,05,06,16,16.10
2019,04,05,06,17,16.10
2019,04,05,06,18,16.10
2019,04,05,06,19,17.70
2019,04,05,06,20,17.70
2019,04,05,06,21,17.70
2019,04,05,06,22,17.70
2019,04,05,06,23,19.30
2019,04,05,06,24,19.30
2019,04,05,06,25,19.30
2019,04,05,06,26,20.90
2019,04,05,06,27,17.70
2019,04,05,06,28,16.10
2019,04,05,06,29,14.50
2019,04,05,06,30,12.90
2019,04,05,06,31,9.60
2019,04,05,06,32,9.60
2019,04,05,06,33,9.60
2019,04,05,06,34,9.60
2019,04,05,06,35,8.10
2019,04,05,06,36,4.80
2019,04,05,06,37,3.20
2019,04,05,06,38,3.20
2019,04,05,06,39,3.20
2019,04,05,06,40,1.60
2019,04,05,06,41,1.60
2019,04,05,06,42,1.60
2019,04,05,06,43,1.60
2019,04,05,06,44,3.20
2019,04,05,06,45,1.60
2019,04,05,06,46,4.80
2019,04,05,06,47,6.40
2019,04,05,06,48,6.40
2019,04,05,06,49,6.40
2019,04,05,06,50,8.10
2019,04,05,06,51,8.10
2019,04,05,06,52,9.60
2019,04,05,06,53,11.30
2019,04,05,06,54,9.60
2019,04,05,06,55,19.30
2019,04,05,06,56,11.30
2019,04,05,06,57,12.90
2019,04,05,06,58,16.10
2019,04,05,06,59,16.10
2019,04,05,07,00,16.10
2019,04,05,07,01,12.90
2019,04,05,07,02,12.90
2019,04,05,07,03,14.50
2019,04,05,07,04,14.50
2019,04,05,07,05,14.50
2019,04,05,07,06,14.50
2019,04,05,07,07,16.10
2019,04,05,07,08,17.70
2019,04,05,07,09,16.10
2019,04,05,07,10,17.70
2019,04,05,07,11,19.30
2019,04,05,07,12,24.20
2019,04,05,07,13,25.70
2019,04,05,07,14,27.40
2019,04,05,07,15,30.60
2019,04,05,07,16,30.60
2019,04,05,07,17,30.60
2019,04,05,07,18,32.20
2019,04,05,07,19,35.40
2019,04,05,07,20,37.00
2019,04,05,07,21,38.60
2019,04,05,07,22,38.60
2019,04,05,07,23,37.00
2019,04,05,07,24,40.20
2019,04,05,07,25,40.20
2019,04,05,07,26,40.20
2019,04,05,07,27,40.20
2019,04,05,07,28,41.80
2019,04,05,07,29,41.80
2019,04,05,07,30,40.20
2019,04,05,07,31,40.20
2019,04,05,07,32,38.60
2019,04,05,07,33,40.20
2019,04,05,07,34,40.20
2019,04,05,07,35,41.80
2019,04,05,07,36,40.20
2019,04,05,07,37,41.80
2019,04,05,07,38,41.80
2019,04,05,07,39,41.80
2019,04,05,07,40,38.60
2019,04,05,07,41,40.20
2019,04,05,07,42,40.20
2019,04,05,07,43,41.80
2019,04,05,07,44,41.80
2019,04,05,07,45,41.80
2019,04,05,07,46,41.80
2019,04,05,07,47,43.50
2019,04,05,07,48,41.80
2019,04,05,07,49,41.80
2019,04,05,07,50,40.20
2019,04,05,07,51,41.80
2019,04,05,07,52,40.20
2019,04,05,07,53,41.80
2019,04,05,07,54,38.60
2019,04,05,07,55,38.60
2019,04,05,07,56,38.60
2019,04,05,07,57,37.00
2019,04,05,07,58,35.40
2019,04,05,07,59,33.80
2019,04,05,08,00,35.40
2019,04,05,08,01,33.80
2019,04,05,08,02,33.80
2019,04,05,08,03,33.80
2019,04,05,08,04,35.40
2019,04,05,08,05,33.80
2019,04,05,08,06,35.40
2019,04,05,08,07,32.20
2019,04,05,08,08,32.20
2019,04,05,08,09,32.20
2019,04,05,08,10,29.00
2019,04,05,08,11,29.00
2019,04,05,08,12,29.00
2019,04,05,08,13,27.40
2019,04,05,08,14,29.00
2019,04,05,08,15,29.00
2019,04,05,08,16,29.00
2019,04,05,08,17,27.40
2019,04,05,08,18,25.70
2019,04,05,08,19,25.70
2019,04,05,08,20,24.20
2019,04,05,08,21,24.20
2019,04,05,08,22,24.20
2019,04,05,08,23,24.20
2019,04,05,08,24,22.50
2019,04,05,08,25,20.90
2019,04,05,08,26,19.30
2019,04,05,08,27,20.90
2019,04,05,08,28,20.90
2019,04,05,08,29,20.90
2019,04,05,08,30,19.30
2019,04,05,08,31,17.70
2019,04,05,08,32,16.10
2019,04,05,08,33,17.70
2019,04,05,08,34,16.10
2019,04,05,08,35,14.50
2019,04,05,08,36,17.70
2019,04,05,08,37,17.70
2019,04,05,08,38,16.10
2019,04,05,08,39,16.10
2019,04,05,08,40,17.70
2019,04,05,08,41,17.70
2019,04,05,08,42,17.70
2019,04,05,08,43,17.70
2019,04,05,08,44,17.70
2019,04,05,08,45,17.70
2019,04,05,08,46,17.70
2019,04,05,08,47,17.70
2019,04,05,08,48,17.70
2019,04,05,08,49,16.10
2019,04,05,08,50,17.70
2019,04,05,08,51,17.70
2019,04,05,08,52,17.70
2019,04,05,08,53,16.10
2019,04,05,08,54,17.70
2019,04,05,08,55,16.10
2019,04,05,08,56,16.10
2019,04,05,08,57,16.10
2019,04,05,08,58,16.10
2019,04,05,08,59,17.70
2019,04,05,09,00,16.10
2019,04,05,09,01,17.70
2019,04,05,09,02,17.70
2019,04,05,09,03,17.70
2019,04,05,09,04,16.10
2019,04,05,09,05,16.10
2019,04,05,09,06,16.10
2019,04,05,09,07,16.10
2019,04,05,09,08,19.30
2019,04,05,09,09,14.50
2019,04,05,09,10,22.50
2019,04,05,09,11,22.50
2019,04,05,09,12,22.50
2019,04,05,09,13,24.20
2019,04,05,09,14,24.20
2019,04,05,09,15,25.70
2019,04,05,09,16,24.20
2019,04,05,09,17,24.20
2019,04,05,09,18,25.70
2019,04,05,09,19,25.70
2019,04,05,09,20,27.40
2019,04,05,09,21,27.40
2019,04,05,09,22,30.60
2019,04,05,09,23,29.00
2019,04,05,09,24,33.80
2019,04,05,09,25,33.80
2019,04,05,09,26,33.80
2019,04,05,09,27,38.60
2019,04,05,09,28,41.80
2019,04,05,09,29,41.80
2019,04,05,09,30,48.30
2019,04,05,09,31,48.30
2019,04,05,09,32,48.30
2019,04,05,09,33,49.90
2019,04,05,09,34,54.70
2019,04,05,09,35,54.70
2019,04,05,09,36,51.50
2019,04,05,09,37,53.10
2019,04,05,09,38,49.90
2019,04,05,09,39,49.90
2019,04,05,09,40,48.30
2019,04,05,09,41,46.70
2019,04,05,09,42,45.10
2019,04,05,09,43,43.50
2019,04,05,09,44,43.50
2019,04,05,09,45,45.10
2019,04,05,09,46,45.10
2019,04,05,09,47,43.50
2019,04,05,09,48,41.80
2019,04,05,09,49,43.50
2019,04,05,09,50,43.50
2019,04,05,09,51,43.50
2019,04,05,09,52,43.50
2019,04,05,09,53,43.50
2019,04,05,09,54,41.80
2019,04,05,09,55,45.10
2019,04,05,09,56,40.20
2019,04,05,09,57,41.80
2019,04,05,09,58,38.60
2019,04,05,09,59,40.20
2019,04,05,10,00,38.60
2019,04,05,10,01,40.20
2019,04,05,10,02,41.80
2019,04,05,10,03,40.20
2019,04,05,10,04,38.60
2019,04,05,10,05,37.00
2019,04,05,10,06,33.80
2019,04,05,10,07,30.60
2019,04,05,10,08,30.60
2019,04,05,10,09,33.80
2019,04,05,10,10,33.80
2019,04,05,10,11,33.80
2019,04,05,10,12,37.00
2019,04,05,10,13,38.60
2019,04,05,10,14,38.60
2019,04,05,10,15,43.50
2019,04,05,10,16,43.50
2019,04,05,10,17,41.80
2019,04,05,10,18,43.50
2019,04,05,10,19,41.80
2019,04,05,10,20,41.80
2019,04,05,10,21,43.50
2019,04,05,10,22,41.80
2019,04,05,10,23,41.80
2019,04,05,10,24,41.80
2019,04,05,10,25,38.60
2019,04,05,10,26,40.20
2019,04,05,10,27,37.00
2019,04,05,10,28,37.00
2019,04,05,10,29,38.60
2019,04,05,10,30,41.80
2019,04,05,10,31,40.20
2019,04,05,10,32,40.20
2019,04,05,10,33,40.20
2019,04,05,10,34,43.50
2019,04,05,10,35,46.70
2019,04,05,10,36,45.10
2019,04,05,10,37,46.70
2019,04,05,10,38,46.70
2019,04,05,10,39,49.90
2019,04,05,10,40,49.90
2019,04,05,10,41,49.90
2019,04,05,10,42,49.90
2019,04,05,10,43,51.50
2019,04,05,10,44,51.50
2019,04,05,10,45,56.30
2019,04,05,10,46,61.20
2019,04,05,10,47,61.20
2019,04,05,10,48,61.20
2019,04,05,10,49,59.50
2019,04,05,10,50,61.20
2019,04,05,10,51,57.90
2019,04,05,10,52,53.10
2019,04,05,10,53,51.50
2019,04,05,10,54,49.90
2019,04,05,10,55,51.50
2019,04,05,10,56,48.30
2019,04,05,10,57,53.10
2019,04,05,10,58,49.90
2019,04,05,10,59,51.50
2019,04,05,11,00,48.30
2019,04,05,11,01,48.30
2019,04,05,11,02,49.90
2019,04,05,11,03,53.10
2019,04,05,11,04,53.10
2019,04,05,11,05,54.70
2019,04,05,11,06,57.90
2019,04,05,11,07,53.10
2019,04,05,11,08,53.10
2019,04,05,11,09,54.70
2019,04,05,11,10,54.70
2019,04,05,11,11,57.90
2019,04,05,11,12,54.70
2019,04,05,11,13,64.40
2019,04,05,11,14,57.90
2019,04,05,11,15,57.90
2019,04,05,11,16,61.20
2019,04,05,11,17,61.20
2019,04,05,11,18,62.70
2019,04,05,11,19,57.90
2019,04,05,11,20,61.20
2019,04,05,11,21,62.70
2019,04,05,11,22,57.90
2019,04,05,11,23,57.90
2019,04,05,11,24,56.30
2019,04,05,11,25,54.70
2019,04,05,11,26,57.90
2019,04,05,11,27,53.10
2019,04,05,11,28,56.30
2019,04,05,11,29,57.90
2019,04,05,11,30,64.40
2019,04,05,11,31,67.60
2019,04,05,11,32,70.80
2019,04,05,11,33,72.40
2019,04,05,11,34,74.00
2019,04,05,11,35,74.00
2019,04,05,11,36,74.00
2019,04,05,11,37,72.40
2019,04,05,11,38,69.20
2019,04,05,11,39,70.80
2019,04,05,11,40,67.60
2019,04,05,11,41,69.20
2019,04,05,11,42,67.60
2019,04,05,11,43,69.20
2019,04,05,11,44,70.80
2019,04,05,11,45,67.60
2019,04,05,11,46,66.00
2019,04,05,11,47,62.70
2019,04,05,11,48,61.20
2019,04,05,11,49,61.20
2019,04,05,11,50,57.90
2019,04,05,11,51,61.20
2019,04,05,11,52,57.90
2019,04,05,11,53,54.70
2019,04,05,11,54,56.30
2019,04,05,11,55,56.30
2019,04,05,11,56,54.70
2019,04,05,11,57,51.50
2019,04,05,11,58,51.50
2019,04,05,11,59,48.30
2019,04,05,12,00,53.10
2019,04,05,12,01,54.70
2019,04,05,12,02,54.70
2019,04,05,12,03,56.30
2019,04,05,12,04,62.70
2019,04,05,12,05,62.70
2019,04,05,12,06,67.60
2019,04,05,12,07,67.60
2019,04,05,12,08,67.60
2019,04,05,12,09,64.40
2019,04,05,12,10,69.20
2019,04,05,12,11,67.60
2019,04,05,12,12,64.40
2019,04,05,12,13,61.20
2019,04,05,12,14,57.90
2019,04,05,12,15,61.20
2019,04,05,12,16,49.90
2019,04,05,12,17,57.90
2019,04,05,12,18,59.50
2019,04,05,12,19,59.50
2019,04,05,12,20,62.70
2019,04,05,12,21,64.40
2019,04,05,12,22,53.10
2019,04,05,12,23,43.50
2019,04,05,12,24,45.10
2019,04,05,12,25,48.30
2019,04,05,12,26,59.50
2019,04,05,12,27,59.50
2019,04,05,12,28,62.70
2019,04,05,12,29,61.20
2019,04,05,12,30,61.20
2019,04,05,12,31,61.20
2019,04,05,12,32,61.20
2019,04,05,12,33,64.40
2019,04,05,12,34,61.20
2019,04,05,12,35,59.50
2019,04,05,12,36,61.20
2019,04,05,12,37,61.20
2019,04,05,12,38,64.40
2019,04,05,12,39,66.00
2019,04,05,12,40,69.20
2019,04,05,12,41,74.00
2019,04,05,12,42,70.80
2019,04,05,12,43,69.20
2019,04,05,12,44,70.80
2019,04,05,12,45,67.60
2019,04,05,12,46,69.20
2019,04,05,12,47,69.20
2019,04,05,12,48,69.20
2019,04,05,12,49,69.20
2019,04,05,12,50,69.20
2019,04,05,12,51,69.20
2019,04,05,12,52,70.80
2019,04,05,12,53,64.40
2019,04,05,12,54,62.70
2019,04,05,12,55,66.00
2019,04,05,12,56,61.20
2019,04,05,12,57,64.40
2019,04,05,12,58,72.40
2019,04,05,12,59,67.60
2019,04,05,13,00,64.40
2019,04,05,13,01,66.00
2019,04,05,13,02,74.00
2019,04,05,13,03,69.20
2019,04,05,13,04,67.60
2019,04,05,13,05,69.20
2019,04,05,13,06,72.40
2019,04,05,13,07,70.80
2019,04,05,13,08,70.80
2019,04,05,13,09,67.60
2019,04,05,13,10,69.20
2019,04,05,13,11,67.60
2019,04,05,13,12,64.40
2019,04,05,13,13,70.80
2019,04,05,13,14,66.00
2019,04,05,13,15,62.70
2019,04,05,13,16,62.70
2019,04,05,13,17,67.60
2019,04,05,13,18,66.00
2019,04,05,13,19,66.00
2019,04,05,13,20,61.20
2019,04,05,13,21,61.20
2019,04,05,13,22,61.20
2019,04,05,13,23,66.00
2019,04,05,13,24,64.40
2019,04,05,13,25,57.90
2019,04,05,13,26,66.00
2019,04,05,13,27,62.70
2019,04,05,13,28,61.20
2019,04,05,13,29,64.40
2019,04,05,13,30,62.70
2019,04,05,13,31,59.50
2019,04,05,13,32,57.90
2019,04,05,13,33,54.70
2019,04,05,13,34,64.40
2019,04,05,13,35,56.30
2019,04,05,13,36,61.20
2019,04,05,13,37,61.20
2019,04,05,13,38,64.40
2019,04,05,13,39,69.20
2019,04,05,13,40,66.00
2019,04,05,13,41,61.20
2019,04,05,13,42,53.10
2019,04,05,13,43,59.50
2019,04,05,13,44,64.40
2019,04,05,13,45,61.20
2019,04,05,13,46,54.70
2019,04,05,13,47,53.10
2019,04,05,13,48,53.10
2019,04,05,13,49,57.90
2019,04,05,13,50,57.90
2019,04,05,13,51,57.90
2019,04,05,13,52,56.30
2019,04,05,13,53,51.50
2019,04,05,13,54,56.30
2019,04,05,13,55,57.90
2019,04,05,13,56,57.90
2019,04,05,13,57,54.70
2019,04,05,13,58,48.30
2019,04,05,13,59,37.00
2019,04,05,14,00,37.00
2019,04,05,14,01,51.50
2019,04,05,14,02,38.60
2019,04,05,14,03,29.00
2019,04,05,14,04,25.70
2019,04,05,14,05,24.20
2019,04,05,14,06,19.30
2019,04,05,14,07,19.30
2019,04,05,14,08,19.30
2019,04,05,14,09,20.90
2019,04,05,14,10,19.30
2019,04,05,14,11,19.30
2019,04,05,14,12,19.30
2019,04,05,14,13,17.70
2019,04,05,14,14,16.10
2019,04,05,14,15,16.10
2019,04,05,14,16,20.90
2019,04,05,14,17,19.30
2019,04,05,14,18,17.70
2019,04,05,14,19,16.10
2019,04,05,14,20,17.70
2019,04,05,14,21,17.70
2019,04,05,14,22,16.10
2019,04,05,14,23,14.50
2019,04,05,14,24,12.90
2019,04,05,14,25,16.10
2019,04,05,14,26,22.50
2019,04,05,14,27,11.30
2019,04,05,14,28,16.10
2019,04,05,14,29,12.90
2019,04,05,14,30,9.60
2019,04,05,14,31,8.10
2019,04,05,14,32,6.40
2019,04,05,14,33,4.80
2019,04,05,14,34,4.80
2019,04,05,14,35,11.30
2019,04,05,14,36,9.60
2019,04,05,14,37,11.30
2019,04,05,14,38,11.30
2019,04,05,14,39,3.20
2019,04,05,14,40,9.60
2019,04,05,14,41,8.10
2019,04,05,14,42,11.30
2019,04,05,14,43,11.30
2019,04,05,14,44,8.10
2019,04,05,14,45,4.80
2019,04,05,14,46,6.40
2019,04,05,14,47,9.60
2019,04,05,14,48,17.70
2019,04,05,14,49,33.80
2019,04,05,14,50,37.00
2019,04,05,14,51,38.60
2019,04,05,14,52,38.60
2019,04,05,14,53,41.80
2019,04,05,14,54,45.10
2019,04,05,14,55,45.10
2019,04,05,14,56,46.70
2019,04,05,14,57,46.70
2019,04,05,14,58,46.70
2019,04,05,14,59,45.10
2019,04,05,15,00,48.30
2019,04,05,15,01,48.30
2019,04,05,15,02,48.30
2019,04,05,15,03,51.50
2019,04,05,15,04,48.30
2019,04,05,15,05,48.30
2019,04,05,15,06,46.70
2019,04,05,15,07,49.90
2019,04,05,15,08,51.50
2019,04,05,15,09,51.50
2019,04,05,15,10,53.10
2019,04,05,15,11,51.50
2019,04,05,15,12,51.50
2019,04,05,15,13,53.10
2019,04,05,15,14,53.10
2019,04,05,15,15,56.30
2019,04,05,15,16,57.90
2019,04,05,15,17,57.90
2019,04,05,15,18,54.70
2019,04,05,15,19,54.70
2019,04,05,15,20,51.50
2019,04,05,15,21,49.90
2019,04,05,15,22,54.70
2019,04,05,15,23,54.70
2019,04,05,15,24,54.70
2019,04,05,15,25,53.10
2019,04,05,15,26,49.90
2019,04,05,15,27,46.70
2019,04,05,15,28,46.70
2019,04,05,15,29,46.70
2019,04,05,15,30,41.80
2019,04,05,15,31,41.80
2019,04,05,15,32,40.20
2019,04,05,15,33,43.50
2019,04,05,15,34,41.80
2019,04,05,15,35,41.80
2019,04,05,15,36,41.80
2019,04,05,15,37,41.80
2019,04,05,15,38,43.50
2019,04,05,15,39,41.80
2019,04,05,15,40,41.80
2019,04,05,15,41,43.50
2019,04,05,15,42,45.10
2019,04,05,15,43,45.10
2019,04,05,15,44,48.30
2019,04,05,15,45,48.30
2019,04,05,15,46,49.90
2019,04,05,15,47,54.70
2019,04,05,15,48,56.30
2019,04,05,15,49,54.70
2019,04,05,15,50,56.30
2019,04,05,15,51,54.70
2019,04,05,15,52,53.10
2019,04,05,15,53,51.50
2019,04,05,15,54,51.50
2019,04,05,15,55,51.50
2019,04,05,15,56,56.30
2019,04,05,15,57,57.90
2019,04,05,15,58,64.40
2019,04,05,15,59,66.00
2019,04,05,16,00,61.20
2019,04,05,16,01,56.30
2019,04,05,16,02,57.90
2019,04,05,16,03,57.90
2019,04,05,16,04,57.90
2019,04,05,16,05,61.20
2019,04,05,16,06,57.90
2019,04,05,16,07,57.90
2019,04,05,16,08,67.60
2019,04,05,16,09,67.60
2019,04,05,16,10,70.80
2019,04,05,16,11,67.60
2019,04,05,16,12,69.20
2019,04,05,16,13,70.80
2019,04,05,16,14,69.20
2019,04,05,16,15,72.40
2019,04,05,16,16,75.60
2019,04,05,16,17,75.60
2019,04,05,16,18,70.80
2019,04,05,16,19,69.20
2019,04,05,16,20,66.00
2019,04,05,16,21,64.40
2019,04,05,16,22,67.60
2019,04,05,16,23,66.00
2019,04,05,16,24,67.60
2019,04,05,16,25,69.20
2019,04,05,16,26,70.80
2019,04,05,16,27,62.70
2019,04,05,16,28,61.20
2019,04,05,16,29,57.90
2019,04,05,16,30,57.90
2019,04,05,16,31,56.30
2019,04,05,16,32,56.30
2019,04,05,16,33,56.30
2019,04,05,16,34,54.70
2019,04,05,16,35,49.90
2019,04,05,16,36,46.70
2019,04,05,16,37,45.10
2019,04,05,16,38,43.50
2019,04,05,16,39,46.70
2019,04,05,16,40,46.70
2019,04,05,16,41,48.30
2019,04,05,16,42,53.10
2019,04,05,16,43,51.50
2019,04,05,16,44,49.90
2019,04,05,16,45,51.50
2019,04,05,16,46,53.10
2019,04,05,16,47,46.70
2019,04,05,16,48,41.80
2019,04,05,16,49,41.80
2019,04,05,16,50,41.80
2019,04,05,16,51,41.80
2019,04,05,16,52,40.20
2019,04,05,16,53,45.10
2019,04,05,16,54,53.10
2019,04,05,16,55,54.70
2019,04,05,16,56,54.70
2019,04,05,16,57,51.50
2019,04,05,16,58,51.50
2019,04,05,16,59,51.50
2019,04,05,17,00,49.90
2019,04,05,17,01,49.90
2019,04,05,17,02,49.90
2019,04,05,17,03,49.90
2019,04,05,17,04,46.70
2019,04,05,17,05,49.90
2019,04,05,17,06,45.10
2019,04,05,17,07,43.50
2019,04,05,17,08,45.10
2019,04,05,17,09,41.80
2019,04,05,17,10,40.20
2019,04,05,17,11,40.20
2019,04,05,17,12,40.20
2019,04,05,17,13,40.20
2019,04,05,17,14,40.20
2019,04,05,17,15,40.20
2019,04,05,17,16,40.20
2019,04,05,17,17,41.80
2019,04,05,17,18,40.20
2019,04,05,17,19,40.20
2019,04,05,17,20,41.80
2019,04,05,17,21,38.60